Theta_e
289 289 289 288 288 288 288 288 287 288 288 287 287 287 288 287 287 287 287 286 286 286
289 288 288 289 289 289 289 288 287 287 287 287 286 287 287 286 285 286 286 285 285 285
288 288 289 289 288 288 288 287 287 287 287 286 286 286 286 286 285 285 285 285 284 284
287 287 288 287 288 288 288 287 287 286 286 286 285 286 285 285 285 284 284 284 284 284
287 287 287 287 288 288 287 287 286 286 286 285 285 285 285 284 283 283 283 284 284 283
286 286 286 287 287 287 287 286 286 285 285 285 285 284 284 284 284 283 283 283 283 283
286 286 286 287 286 286 286 285 284 284 285 284 284 284 283 283 283 283 283 283 283 282
286 286 286 286 286 286 285 285 284 283 283 282 282 283 282 283 283 282 282 283 283 282
286 285 285 285 285 284 284 284 283 282 281 280 282 282 282 283 283 282 281 281 281 280
285 284 284 284 283 283 282 282 281 280 280 280 281 282 282 282 281 280 278 277 277 277
283 282 282 281 281 281 280 277 276 276 279 279 279 280 280 279 278 277 276 275 275 275
281 279 278 277 276 276 275 274 273 274 274 275 276 278 278 277 276 274 274 275 274 273
276 275 274 274 274 274 273 272 272 270 271 271 273 276 276 275 274 273 273 274 274 274
273 272 272 272 272 272 271 270 269 269 269 269 270 272 274 274 273 272 272 272 272 273
Wind_Speed
11 7 7 9 6 6 6 6 8 6 6 7 7 6 5 4 4 4 4 4 4 3
10 9 8 9 7 6 6 7 9 8 7 7 6 6 5 4 5 4 3 3 3 2
12 11 9 8 8 8 7 9 9 9 8 7 6 6 5 4 4 4 3 2 1 1
13 12 10 9 9 9 9 9 9 8 8 7 7 6 4 4 5 4 3 3 2 1
13 12 11 10 10 9 10 9 9 8 7 7 6 6 5 5 3 4 3 3 2 3
13 13 12 11 11 10 8 8 8 7 7 6 5 5 4 3 3 3 2 2 2 3
14 13 12 11 11 10 9 8 6 5 4 4 4 4 3 3 3 2 1 0 2 3
13 12 12 11 11 10 10 8 8 7 5 5 4 2 3 3 2 1 1 1 1 2
13 12 12 11 11 10 9 9 9 7 6 5 3 5 6 5 3 2 1 1 2 2
13 12 11 11 11 10 10 9 8 7 7 7 6 7 7 6 4 3 3 2 2 3
12 11 10 10 10 10 10 10 8 8 8 8 6 8 10 8 5 4 3 3 3 3
12 13 13 13 12 11 11 10 9 8 8 8 7 9 9 6 4 3 3 2 3 3
13 14 14 13 12 11 11 11 9 10 8 8 7 10 9 7 3 3 2 1 2 5
14 15 14 14 12 11 11 11 10 10 8 8 7 6 9 9 4 3 3 3 4 3
Wind_Direction
188 178 183 178 177 173 171 168 157 155 140 133 135 133 126 113 97 98 90 80 57 74
182 178 180 174 174 176 168 155 162 156 153 151 149 146 140 122 122 116 108 101 86 42
177 180 177 175 174 174 167 160 164 164 162 162 158 154 149 136 133 141 129 120 109 49
175 178 178 177 178 174 164 169 170 170 168 171 169 166 166 155 147 163 154 157 187 240
172 174 178 178 177 171 170 169 171 170 174 177 176 172 176 170 169 187 185 199 206 251
174 177 179 178 174 169 166 164 166 168 176 175 171 171 177 180 188 199 222 241 261 284
180 178 176 173 170 166 163 155 149 149 136 135 136 159 150 177 191 205 222 321 309 311
173 173 173 170 166 165 163 160 147 136 124 120 135 151 153 173 184 219 242 183 90 320
167 168 168 162 163 158 154 149 144 140 131 135 127 155 171 167 166 178 214 320 15 329
161 161 157 155 153 148 140 133 121 113 110 112 107 120 115 110 117 120 83 59 22 355
146 142 139 134 131 120 108 106 106 105 108 98 87 104 99 90 85 83 72 47 24 7
122 118 113 109 107 105 107 103 99 94 95 89 82 85 89 72 73 61 53 47 37 8
107 108 107 108 107 106 103 103 100 93 78 71 59 71 63 70 54 39 354 7 317 298
95 100 102 103 102 105 103 101 97 94 83 74 51 39 55 40 40 359 346 332 313 323